Find Hawk 7C

NORAD ID: 56200 Int'l Des: 2023-054 Owner: HE360 Country: US operational
LEOCIRCULARRETROGRADESSO

Live Position

Loading 3D Globe...

About Hawk 7C

Description loading...

Upcoming Passes

Passes for default location (London). Set your location on the main map for personalized predictions.

Altitude History

Loading altitude history...

Two-Line Element Set

1 56200U 23054Y 26109.20003323 .00004713 00000-0 18202-3 0 9999
2 56200 97.2775 357.0704 0001029 192.5346 167.5867 15.26731340168029
Epoch: Apr 19, 2026 • Age: 17 hours

Current Status

Altitude 513.8 km
Velocity 7.61 km/s
Sub-Earth Point -81.27°S, 120.45°W
Launch Date Apr 15, 2023
Age 3 years
Type other

Technical Details

Classification Payload
Mass 31.00 kg
Dry Mass 30.00 kg
Total Mass 31.00 kg
Length 0.45 m
Diameter 0.30 m
Span 1.00 m
Shape Box + 2 pan
Manufacturer UTIAS
Bus Type Hawk2G
Phase Status In Orbit
Owner/State HE360/US

Most Searched